• MPC Preparation (Info)

  • MPEC 2001-O21 : 2000 RV37

    The following Minor Planet Electronic Circular may be linked-to from your own Web pages, but must not otherwise be redistributed electronically.

    A form allowing access to any MPEC is at the bottom of this page.


    Read MPEC 2001-O20 Read MPEC 2001-O22


    M.P.E.C. 2001-O21                                Issued 2001 July 22, 19:04 UT
    
         The Minor Planet Electronic Circulars contain information on unusual
             minor planets and routine data on comets.  They are published
       on behalf of Commission 20 of the International Astronomical Union by the
              Minor Planet Center, Smithsonian Astrophysical Observatory,
                              Cambridge, MA 02138, U.S.A.
    
                 Prepared using the Tamkin Foundation Computer Network
    
                                  MPC@CFA.HARVARD.EDU
              URL http://cfa-www.harvard.edu/iau/mpc.html  ISSN 1523-6714
    
                                       2000 RV37
    
                               Revision to MPEC 2000-R24
    
    Observations:
         K00R37V 1C2001 07 04.80858 01 59 53.59 -15 00 07.1                      413
         K00R37V 1C2001 07 04.81016 01 59 53.25 -15 00 07.8                      413
         K00R37V 1C2001 07 04.81176 01 59 52.88 -15 00 07.6          19.8 R      413
         K00R37V 1C2001 07 04.82743 01 59 50.03 -15 00 07.2                      413
         K00R37V 1C2001 07 04.82925 01 59 49.64 -15 00 07.4                      413
         K00R37V 1C2001 07 04.83109 01 59 49.31 -15 00 07.7                      413
         K00R37V  C2001 07 22.76773 00 55 02.18 -14 56 02.6          18.2 R      474
         K00R37V  C2001 07 22.77309 00 55 00.63 -14 56 02.2          18.5 R      474
         K00R37V  C2001 07 22.77444 00 55 00.29 -14 56 02.5          18.5 R      474
         K00R37V  C2001 07 22.77586 00 54 59.90 -14 56 02.3          18.6 R      474
    
    Observer details:
    413 Siding Spring.  Observer R. H. McNaught.  1.0-m f/8 reflector + CCD.
    474 Mount John Observatory, Lake Tekapo.  Observers I. P. Griffin, N. Brady.
        1.0-m f/7.7 reflector + CCD.
    
    First and last observations above in comparison with prediction:
    Residuals in seconds of arc, reference and Delta-T
    010704 413 59.8- 21.6+    010722 474 26.0- 33.1+    MPO  7551   -0.012 day
    
    Orbital elements:
    2000 RV37
    Epoch 2001 Apr. 1.0 TT = JDT 2452000.5                  Spahr
    M 331.86425              (2000.0)            P               Q
    n   0.92806873     Peri.  210.85069     -0.98953718     +0.03959845
    a   1.0409167      Node   330.43893     +0.05322859     -0.79356770
    e   0.4958754      Incl.   16.33272     -0.13410027     -0.60719212
    P   1.06           H   19.0           G   0.15           U   4
    Residuals in seconds of arc
    000903 704  0.8+  0.5-    000905 344  0.1+  0.0     001205 693  0.4-  0.1+
    000903 704  0.2+  0.9-    000905 587  0.9-  1.0-    001205 693  0.5-  0.6+
    000903 704  0.9-  0.6-    000905 587  0.4-  0.6-    001205 693  0.3-  0.2+
    000903 704  0.7-  0.2-    000906 704  0.3-  0.4+    010704 413  0.9+  0.3+
    000904 684  0.4-  0.1-    000906 704  1.3-  0.1-    010704 413  0.3+  0.3-
    000904 684  0.2+  0.4+    000906 704  0.6+  0.1+    010704 413  0.8-  0.1-
    000904 684  0.1-  0.2-    000906 704  0.2-  0.1+    010704 413  0.4+  0.5+
    000904 684  1.9+  0.0     000918 413  1.0+  0.2+    010704 413  0.3-  0.3+
    000905 658  0.2-  0.9+    000918 413  1.0-  0.2-    010704 413  0.1-  0.1+
    000905 658  0.4+  0.1-    000920 853  0.5+  0.1+    010722 474  0.1+  0.1-
    000905 658  0.6+  0.6+    000920 853  0.1-  0.1-    010722 474  0.6-  0.2+
    000905 344  0.1+  0.2-    001023 540  1.1+  1.4+    010722 474  0.1-  0.2-
    000905 344  0.1-  0.1-    001023 540  0.1+  0.4+    010722 474  0.0   0.0
    000905 344  0.2-  0.1+    001023 540  0.9+  0.6+
    
    Ephemeris:
    2000 RV37                a,e,i = 1.04, 0.50, 16                  q = 0.5248
    Date    TT    R. A. (2000) Decl.     Delta      r     Elong.  Phase     V
    2001 07 10    01 43.81   -14 59.3    0.334    1.068    89.7    72.1    19.3
    2001 07 20    01 07.07   -14 56.8    0.312    1.146   106.8    58.1    18.9
    2001 07 30    00 19.29   -14 51.5    0.297    1.217   126.9    41.9    18.4
    2001 08 09    23 21.97   -14 22.5    0.299    1.281   149.5    23.7    18.0
    2001 08 19    22 25.06   -13 16.8    0.328    1.337   172.2     5.9    17.7
    2001 08 29    21 40.00   -11 51.5    0.384    1.387   167.5     9.1    18.2
    2001 09 08    21 10.54   -10 30.8    0.463    1.430   151.0    20.0    19.1
    2001 09 18    20 54.26   -09 23.4    0.559    1.467   137.6    27.5    19.8
    2001 09 28    20 47.64   -08 26.3    0.666    1.497   126.5    32.5    20.4
    2001 10 08    20 47.77   -07 33.9    0.779    1.521   117.1    35.8    20.8
    2001 10 18    20 52.61   -06 41.8    0.896    1.539   108.7    37.8    21.2
    2001 10 28    21 00.89   -05 46.3    1.014    1.551   101.1    38.9    21.5
    2001 11 07    21 11.68   -04 45.2    1.130    1.556    94.2    39.4    21.8
    2001 11 17    21 24.40   -03 37.0    1.242    1.556    87.7    39.4    22.0
    
    Timothy B. Spahr             (C) Copyright 2001 MPC           M.P.E.C. 2001-O21
    

    Read MPEC 2001-O20 Read MPEC 2001-O22


    MPEC number:

    Enter an MPEC number in one of the following forms:

    • 1997-B01 (the full form)
    • J97B01 (the packed version of the full form)
    • B01 (the abbreviated form)